TimeEDT,TemperatureF,Dew PointF,Humidity,Sea Level PressureIn,VisibilityMPH,Wind Direction,Wind SpeedMPH,Gust SpeedMPH,PrecipitationIn,Events,Conditions,WindDirDegrees,DateUTC
12:15 AM,50.9,47.8,89,30.17,10.0,SE,3.5,-,N/A,,Clear,130,2013-10-12 04:15:00
12:35 AM,50.9,47.8,89,30.17,10.0,SE,3.5,-,N/A,,Clear,140,2013-10-12 04:35:00
12:55 AM,50.9,48.2,90,30.17,10.0,SE,3.5,-,N/A,,Clear,140,2013-10-12 04:55:00
1:15 AM,50.9,48.2,90,30.18,10.0,SE,4.6,-,N/A,,Clear,140,2013-10-12 05:15:00
1:35 AM,50.9,48.2,90,30.18,10.0,Calm,Calm,-,N/A,,Clear,0,2013-10-12 05:35:00
1:55 AM,50.9,48.2,90,30.19,10.0,Calm,Calm,-,N/A,,Clear,0,2013-10-12 05:55:00
2:15 AM,48.4,45.7,90,30.19,5.0,Calm,Calm,-,N/A,,Clear,0,2013-10-12 06:15:00
2:35 AM,48.4,45.9,91,30.19,7.0,SSE,3.5,-,N/A,,Clear,150,2013-10-12 06:35:00
2:55 AM,48.4,45.9,91,30.19,5.0,Calm,Calm,-,N/A,,Clear,0,2013-10-12 06:55:00
3:15 AM,48.4,46.0,92,30.19,7.0,SSE,4.6,-,N/A,,Clear,160,2013-10-12 07:15:00
3:35 AM,48.4,46.0,92,30.20,10.0,Calm,Calm,-,N/A,,Clear,0,2013-10-12 07:35:00
3:55 AM,46.6,44.2,92,30.20,7.0,Calm,Calm,-,N/A,,Clear,0,2013-10-12 07:55:00
4:15 AM,48.4,46.0,92,30.21,10.0,SE,4.6,-,N/A,,Clear,140,2013-10-12 08:15:00
4:35 AM,48.2,45.9,92,30.21,10.0,Calm,Calm,-,N/A,,Clear,0,2013-10-12 08:35:00
4:55 AM,45.9,43.5,92,30.22,7.0,Calm,Calm,-,N/A,,Clear,0,2013-10-12 08:55:00
5:15 AM,46.0,43.9,92,30.23,7.0,Calm,Calm,-,N/A,,Clear,0,2013-10-12 09:15:00
5:35 AM,47.8,45.3,91,30.23,10.0,SE,3.5,-,N/A,,Clear,130,2013-10-12 09:35:00
5:55 AM,45.9,43.7,92,30.23,10.0,SE,3.5,-,N/A,,Clear,140,2013-10-12 09:55:00
7:15 AM,44.8,42.6,92,30.25,10.0,SE,3.5,-,N/A,,Clear,130,2013-10-12 11:15:00
7:35 AM,45.9,43.7,92,30.26,10.0,Calm,Calm,-,N/A,,Clear,0,2013-10-12 11:35:00
7:55 AM,48.4,46.2,92,30.27,10.0,Calm,Calm,-,N/A,,Clear,0,2013-10-12 11:55:00
8:15 AM,50.9,48.6,92,30.27,10.0,ESE,3.5,-,N/A,,Clear,120,2013-10-12 12:15:00
8:35 AM,50.9,48.4,91,30.28,10.0,Calm,Calm,-,N/A,,Clear,0,2013-10-12 12:35:00
8:55 AM,53.6,50.2,88,30.28,10.0,Calm,Calm,-,N/A,,Clear,0,2013-10-12 12:55:00
9:15 AM,55.9,51.3,84,30.28,10.0,Calm,Calm,-,N/A,,Clear,0,2013-10-12 13:15:00
9:35 AM,58.5,51.8,79,30.28,10.0,Calm,Calm,-,N/A,,Clear,0,2013-10-12 13:35:00
9:55 AM,58.5,50.2,74,30.28,10.0,Calm,Calm,-,N/A,,Clear,0,2013-10-12 13:55:00
10:15 AM,61.0,50.7,69,30.28,10.0,Calm,Calm,-,N/A,,Clear,0,2013-10-12 14:15:00
10:35 AM,61.9,50.2,65,30.29,10.0,Calm,Calm,-,N/A,,Clear,0,2013-10-12 14:35:00
10:55 AM,63.9,49.8,60,30.29,10.0,Calm,Calm,-,N/A,,Clear,0,2013-10-12 14:55:00
11:15 AM,66.2,51.4,59,30.29,10.0,Calm,Calm,-,N/A,,Clear,0,2013-10-12 15:15:00
11:35 AM,68.9,53.8,58,30.28,10.0,WNW,3.5,-,N/A,,Clear,300,2013-10-12 15:35:00
11:55 AM,71.1,55.0,57,30.28,10.0,Calm,Calm,-,N/A,,Clear,0,2013-10-12 15:55:00
12:15 PM,71.1,54.9,56,30.28,10.0,NW,3.5,-,N/A,,Clear,310,2013-10-12 16:15:00
12:35 PM,71.1,53.8,54,30.28,10.0,WNW,3.5,-,N/A,,Clear,290,2013-10-12 16:35:00
12:55 PM,71.1,52.2,51,30.27,10.0,NW,3.5,-,N/A,,Clear,310,2013-10-12 16:55:00
1:15 PM,73.0,52.7,49,30.26,10.0,West,4.6,-,N/A,,Clear,260,2013-10-12 17:15:00
1:35 PM,75.2,52.3,45,30.26,10.0,SSW,4.6,-,N/A,,Clear,210,2013-10-12 17:35:00
1:55 PM,76.1,51.6,42,30.26,10.0,WSW,4.6,-,N/A,,Clear,250,2013-10-12 17:55:00
2:15 PM,76.1,51.4,42,30.25,10.0,WSW,4.6,-,N/A,,Clear,240,2013-10-12 18:15:00
2:35 PM,76.1,52.2,43,30.25,10.0,SW,3.5,-,N/A,,Clear,220,2013-10-12 18:35:00
2:55 PM,76.1,51.8,43,30.25,10.0,SW,3.5,-,N/A,,Clear,220,2013-10-12 18:55:00
3:15 PM,76.1,52.5,44,30.25,10.0,SSW,3.5,-,N/A,,Clear,210,2013-10-12 19:15:00
3:35 PM,76.1,52.7,44,30.25,10.0,Calm,Calm,-,N/A,,Clear,0,2013-10-12 19:35:00
3:55 PM,76.1,52.3,43,30.24,10.0,SW,3.5,-,N/A,,Clear,230,2013-10-12 19:55:00
4:15 PM,76.1,52.9,44,30.25,10.0,Calm,Calm,-,N/A,,Clear,0,2013-10-12 20:15:00
4:35 PM,76.1,53.8,46,30.24,10.0,Calm,Calm,-,N/A,,Clear,0,2013-10-12 20:35:00
4:55 PM,75.4,54.3,48,30.25,10.0,Calm,Calm,-,N/A,,Clear,0,2013-10-12 20:55:00
5:15 PM,71.8,52.9,51,30.25,10.0,Calm,Calm,-,N/A,,Clear,0,2013-10-12 21:15:00
5:35 PM,71.1,54.7,56,30.25,10.0,Calm,Calm,-,N/A,,Clear,0,2013-10-12 21:35:00
5:55 PM,69.6,54.0,57,30.25,10.0,Calm,Calm,-,N/A,,Clear,0,2013-10-12 21:55:00
6:15 PM,66.2,53.2,63,30.25,10.0,Calm,Calm,-,N/A,,Clear,0,2013-10-12 22:15:00
6:35 PM,63.1,53.6,71,30.25,10.0,Calm,Calm,-,N/A,,Clear,0,2013-10-12 22:35:00
6:55 PM,61.0,54.3,79,30.26,10.0,Calm,Calm,-,N/A,,Clear,0,2013-10-12 22:55:00
7:15 PM,61.0,53.6,77,30.26,10.0,Calm,Calm,-,N/A,,Clear,0,2013-10-12 23:15:00
7:35 PM,59.4,53.6,81,30.27,10.0,Calm,Calm,-,N/A,,Clear,0,2013-10-12 23:35:00
7:55 PM,58.6,53.2,82,30.27,10.0,Calm,Calm,-,N/A,,Clear,0,2013-10-12 23:55:00
8:15 PM,58.5,53.4,83,30.27,10.0,Calm,Calm,-,N/A,,Clear,0,2013-10-13 00:15:00
8:35 PM,58.5,53.2,83,30.28,10.0,Calm,Calm,-,N/A,,Clear,0,2013-10-13 00:35:00
8:55 PM,58.5,52.2,80,30.28,10.0,Calm,Calm,-,N/A,,Clear,0,2013-10-13 00:55:00
9:15 PM,58.5,50.4,74,30.29,10.0,South,3.5,-,N/A,,Clear,180,2013-10-13 01:15:00
9:35 PM,59.0,48.7,69,30.29,10.0,South,4.6,-,N/A,,Clear,180,2013-10-13 01:35:00
9:55 PM,61.0,49.5,66,30.29,10.0,SSW,3.5,-,N/A,,Clear,200,2013-10-13 01:55:00
10:15 PM,58.5,48.0,68,30.30,10.0,Calm,Calm,-,N/A,,Clear,0,2013-10-13 02:15:00
10:35 PM,58.5,49.3,72,30.30,10.0,South,4.6,-,N/A,,Clear,170,2013-10-13 02:35:00
10:55 PM,58.5,50.0,73,30.31,10.0,South,4.6,-,N/A,,Clear,180,2013-10-13 02:55:00
11:15 PM,58.5,50.0,73,30.31,10.0,South,5.8,-,N/A,,Clear,180,2013-10-13 03:15:00
11:35 PM,58.5,50.2,74,30.32,10.0,South,5.8,-,N/A,,Clear,180,2013-10-13 03:35:00
11:55 PM,55.9,48.2,75,30.32,10.0,SSE,4.6,-,N/A,,Clear,160,2013-10-13 03:55:00